Date String (YYYY-MM-DD hh:mm:ss) UTC,Instrument flags,Ambient pressure (hPa),Sample flow (lpm),Bypass flow (lpm),Sample temperature (°C),Ambient temperature (°C),ASC tube jacket temperature (°C),LED temperature (°C),Box temperature (°C),Sample RH (%),Span deviation,Mass concentration (μg/m³),Mass concentration (μg/m³),Mass concentration (μg/m³)
DateTimeUTC,F1_M11,P_M11,Q1_M11,Q2_M11,T1_M11,T2_M11,T3_M11,T4_M11,T5_M11,U1_M11,ZSPAN_M11,X0_M11,X2_M11,X1_M11
2022-01-11 03:00:00,,0834.0,5.00,0.00,26.9,26.1,00.0,36.0,28.7,06.6,0000.0,0010.01,0004.04,0003.29
2022-01-11 03:01:00,,0834.0,5.00,0.00,26.9,26.1,00.0,36.0,28.7,06.7,0000.0,0010.17,0004.11,0003.38
2022-01-11 03:02:00,,0834.0,4.98,0.00,26.9,26.1,00.0,36.0,28.7,06.7,0000.0,0010.27,0004.22,0003.45
2022-01-11 03:03:00,,0833.9,5.00,0.00,26.9,26.1,00.0,36.0,28.7,06.9,0000.0,0011.48,0004.33,0003.54
2022-01-11 03:04:00,,0834.0,5.00,0.00,26.9,26.1,00.0,36.0,28.7,06.5,0000.0,0011.85,0004.38,0003.62
2022-01-11 03:05:00,,0834.0,5.01,0.00,26.9,26.1,00.0,35.9,28.7,06.4,0000.0,0012.21,0004.41,0003.66
2022-01-11 03:06:00,,0834.0,4.99,0.00,26.9,26.1,00.0,35.9,28.7,06.3,0000.0,0011.91,0004.39,0003.66
2022-01-11 03:07:00,,0834.0,5.01,0.00,26.9,26.1,00.0,35.9,28.7,06.2,0000.0,0011.69,0004.36,0003.62
2022-01-11 03:08:00,,0834.0,5.00,0.00,26.9,26.1,00.0,35.9,28.7,06.2,0000.0,0011.26,0004.29,0003.58
2022-01-11 03:09:00,,0834.0,5.00,0.00,26.9,26.1,00.0,35.9,28.7,06.2,0000.0,0010.58,0004.26,0003.55
2022-01-11 03:10:00,,0834.0,5.00,0.00,26.9,26.1,00.0,35.9,28.7,06.2,0000.0,0010.47,0004.21,0003.53
2022-01-11 03:11:00,,0834.0,5.00,0.00,26.9,26.1,00.0,35.9,28.7,06.3,0000.0,0009.97,0004.14,0003.49
2022-01-11 03:12:00,,0834.0,5.00,0.00,26.9,26.1,00.0,35.9,28.7,06.1,0000.0,0009.72,0004.09,0003.44
2022-01-11 03:13:00,,0834.0,5.01,0.00,26.9,26.1,00.0,35.9,28.7,06.0,0000.0,0009.53,0003.97,0003.36
2022-01-11 03:14:00,,0834.0,5.00,0.00,26.9,26.1,00.0,35.9,28.6,06.5,0000.0,0008.50,0003.87,0003.30
2022-01-11 03:15:00,,0834.0,5.00,0.00,26.9,26.1,00.0,35.9,28.6,06.6,0000.0,0008.47,0003.86,0003.27
2022-01-11 03:16:00,,0834.0,5.00,0.00,26.9,26.0,00.0,35.9,28.6,06.5,0000.0,0008.07,0003.80,0003.26
2022-01-11 03:17:00,,0834.0,5.00,0.00,26.8,26.0,00.0,35.9,28.6,06.3,0000.0,0007.97,0003.79,0003.25
2022-01-11 03:18:00,,0834.0,5.01,0.00,26.8,26.0,00.0,35.9,28.6,05.9,0000.0,0007.99,0003.72,0003.21
2022-01-11 03:19:00,,0833.9,5.00,0.00,26.8,26.0,00.0,35.9,28.6,05.8,0000.0,0008.22,0003.71,0003.15
2022-01-11 03:20:00,,0833.9,4.98,0.00,26.8,26.0,00.0,35.8,28.6,05.6,0000.0,0008.54,0003.62,0003.06
2022-01-11 03:21:00,,0833.9,5.00,0.00,26.8,26.0,00.0,35.8,28.6,05.5,0000.0,0008.88,0003.56,0002.92
2022-01-11 03:22:00,,0834.0,5.02,0.00,26.8,26.0,00.0,35.8,28.6,05.9,0000.0,0009.29,0003.51,0002.80
2022-01-11 03:23:00,,0834.0,4.99,0.00,26.8,26.0,00.0,35.8,28.6,06.1,0000.0,0009.44,0003.49,0002.73
2022-01-11 03:24:00,,0834.0,5.00,0.00,26.8,26.0,00.0,35.8,28.6,06.2,0000.0,0009.54,0003.49,0002.70
2022-01-11 03:25:00,,0834.0,5.00,0.00,26.8,26.0,00.0,35.8,28.6,06.2,0000.0,0009.42,0003.42,0002.60
2022-01-11 03:26:00,,0833.9,5.00,0.00,26.8,25.9,00.0,35.8,28.6,06.2,0000.0,0008.94,0003.31,0002.43
2022-01-11 03:27:00,,0833.9,4.99,0.00,26.8,25.9,00.0,35.8,28.6,06.3,0000.0,0008.73,0003.19,0002.23
2022-01-11 03:28:00,,0833.9,5.01,0.00,26.8,25.9,00.0,35.8,28.6,06.3,0000.0,0008.57,0003.13,0002.08
2022-01-11 03:29:00,,0833.8,5.01,0.00,26.8,25.9,00.0,35.8,28.6,06.1,0000.0,0009.18,0003.09,0001.98
2022-01-11 03:30:00,,0833.8,4.98,0.00,26.8,25.9,00.0,35.8,28.6,06.2,0000.0,0009.26,0003.05,0001.92
2022-01-11 03:31:00,,0833.8,5.01,0.00,26.8,25.9,00.0,35.8,28.6,06.3,0000.0,0008.84,0003.10,0001.90
2022-01-11 03:32:00,,0833.8,5.02,0.00,26.8,25.9,00.0,35.8,28.6,06.3,0000.0,0008.66,0003.13,0001.93
2022-01-11 03:33:00,,0833.8,4.98,0.00,26.8,25.9,00.0,35.8,28.5,06.3,0000.0,0008.21,0003.17,0001.99
2022-01-11 03:34:00,,0833.8,5.01,0.00,26.8,25.9,00.0,35.8,28.5,06.2,0000.0,0008.14,0003.20,0002.03
2022-01-11 03:35:00,,0833.9,5.00,0.00,26.8,25.9,00.0,35.8,28.5,06.3,0000.0,0008.68,0003.24,0002.12
2022-01-11 03:36:00,,0833.9,5.00,0.00,26.8,25.9,00.0,35.8,28.5,06.4,0000.0,0009.26,0003.33,0002.24
2022-01-11 03:37:00,,0833.9,5.00,0.00,26.7,25.9,00.0,35.8,28.5,06.3,0000.0,0009.35,0003.44,0002.38
2022-01-11 03:38:00,,0833.9,5.01,0.00,26.7,25.9,00.0,35.8,28.5,06.3,0000.0,0009.40,0003.51,0002.49
2022-01-11 03:39:00,,0833.8,5.00,0.00,26.7,25.9,00.0,35.7,28.5,06.3,0000.0,0009.46,0003.59,0002.63
2022-01-11 03:40:00,,0833.8,5.01,0.00,26.7,25.8,00.0,35.7,28.5,06.4,0000.0,0008.90,0003.73,0002.89
2022-01-11 03:41:00,,0833.8,4.99,0.00,26.7,25.8,00.0,35.7,28.5,06.4,0000.0,0008.81,0003.88,0003.17
2022-01-11 03:42:00,,0833.8,5.01,0.00,26.7,25.8,00.0,35.7,28.5,06.4,0000.0,0008.97,0004.00,0003.30
2022-01-11 03:43:00,,0833.8,5.01,0.00,26.7,25.8,00.0,35.7,28.5,06.5,0000.0,0009.89,0004.17,0003.46
2022-01-11 03:44:00,,0833.9,5.00,0.00,26.7,25.8,00.0,35.7,28.5,06.6,0000.0,0010.39,0004.38,0003.65
2022-01-11 03:45:00,,0833.9,4.99,0.00,26.7,25.8,00.0,35.7,28.5,06.5,0000.0,0010.63,0004.52,0003.80
2022-01-11 03:46:00,,0834.0,5.01,0.00,26.7,25.8,00.0,35.7,28.5,06.6,0000.0,0010.96,0004.66,0003.93
2022-01-11 03:47:00,,0834.0,5.00,0.00,26.7,25.8,00.0,35.7,28.4,06.6,0000.0,0010.57,0004.78,0004.06
2022-01-11 03:48:00,,0833.9,5.00,0.00,26.6,25.8,00.0,35.7,28.4,06.6,0000.0,0010.73,0004.84,0004.13
2022-01-11 03:49:00,,0833.9,5.01,0.00,26.6,25.7,00.0,35.7,28.3,06.5,0000.0,0011.04,0004.91,0004.19
2022-01-11 03:50:00,,0833.8,5.00,0.00,26.6,25.7,00.0,35.7,28.3,06.7,0000.0,0011.75,0005.08,0004.33
2022-01-11 03:51:00,,0833.8,5.01,0.00,26.6,25.7,00.0,35.6,28.3,06.7,0000.0,0012.03,0005.23,0004.46
2022-01-11 03:52:00,,0833.8,4.99,0.00,26.6,25.7,00.0,35.6,28.3,06.8,0000.0,0012.30,0005.38,0004.57
2022-01-11 03:53:00,,0833.7,5.00,0.00,26.6,25.7,00.0,35.6,28.3,06.5,0000.0,0012.78,0005.47,0004.66
2022-01-11 03:54:00,,0833.7,5.01,0.00,26.5,25.7,00.0,35.6,28.3,06.3,0000.0,0012.27,0005.42,0004.59
2022-01-11 03:55:00,,0833.9,4.99,0.00,26.5,25.7,00.0,35.6,28.3,06.6,0000.0,0013.41,0005.41,0004.51
2022-01-11 03:56:00,,0833.8,5.00,0.00,26.5,25.7,00.0,35.6,28.3,06.7,0000.0,0014.29,0005.51,0004.51
2022-01-11 03:57:00,,0833.8,4.99,0.00,26.5,25.6,00.0,35.6,28.3,06.6,0000.0,0014.92,0005.51,0004.45
2022-01-11 03:58:00,,0833.8,5.01,0.00,26.5,25.6,00.0,35.6,28.3,06.4,0000.0,0015.21,0005.39,0004.32
2022-01-11 03:59:00,,0833.8,5.01,0.00,26.5,25.6,00.0,35.6,28.3,06.6,0000.0,0015.08,0005.37,0004.28
